User: anonymous   Login
Location: Ash Swamp
(41.5170°N, 74.6157°W)
Time: 21:25:31
(UTC+00:00)
Language:

Cosmos 1656 Rocket - Orbit

View from above orbital plane
View from above orbital plane
View from above satellite
View from above satellite

Ground track
Ground track

The orbit data is extracted from the following two-line orbital elements,

1 15772U 85042D   20275.47878571 +.00000050 +00000-0 +44422-4 0  9999
2 15772 071.1086 318.7571 0036722 330.4353 126.0133 14.21275971832277
Epoch (UTC): 01 October 2020 11:29:27
Eccentricity: 0.0036722
inclination: 71.1086°
perigee height: 794 km
apogee height: 847 km
right ascension of ascending node: 318.7571°
argument of perigee: 330.4353°
revolutions per day: 14.21275971
mean anomaly at epoch: 126.0133°
orbit number at epoch: 83227

The dashed part of the orbit path shows where the satellite is in the earth's shadow,  

DLR